BSC4024 OEJN-HECA

Flight info

Callsign BSC4024
Flight time 1h 53m
Altitude 40000
Route MIGDA L677 CVO
Aircraft B742/H-SDFHIRWXY/L

Departure

Time 2026-04-29 09:15
Airport King Abdulaziz International Airport (OEJN)

Arrival

Time 2026-04-29 11:08
Airport Cairo International Airport (HECA)
Time Latitude Longitude Altitude Speed Heading
2026-04-29 08:42 21.69672 39.13276 58 ft 0 kts 249°
2026-04-29 08:55 21.69715 39.13366 57 ft 0 kts 165°
2026-04-29 08:56 21.69728 39.13360 57 ft 0 kts 165°
2026-04-29 09:01 21.69701 39.13369 57 ft 11 kts 161°
2026-04-29 09:02 21.69614 39.13402 57 ft 16 kts 160°
2026-04-29 09:02 21.69520 39.13441 57 ft 17 kts 153°
2026-04-29 09:02 21.69412 39.13431 57 ft 16 kts 233°
2026-04-29 09:02 21.69363 39.13328 57 ft 14 kts 244°
2026-04-29 09:03 21.69304 39.13289 57 ft 13 kts 168°
2026-04-29 09:03 21.69148 39.13345 57 ft 34 kts 160°
2026-04-29 09:03 21.68991 39.13408 57 ft 19 kts 160°
2026-04-29 09:03 21.68848 39.13465 57 ft 26 kts 160°
2026-04-29 09:04 21.68629 39.13552 57 ft 38 kts 159°
2026-04-29 09:04 21.68427 39.13634 57 ft 22 kts 158°
2026-04-29 09:04 21.68327 39.13672 57 ft 11 kts 159°
2026-04-29 09:04 21.68300 39.13683 57 ft 2 kts 159°
2026-04-29 09:05 21.68233 39.13731 57 ft 20 kts 118°
2026-04-29 09:05 21.68269 39.13897 58 ft 30 kts 68°
2026-04-29 09:05 21.68335 39.14090 58 ft 17 kts 71°
2026-04-29 09:05 21.68398 39.14269 58 ft 31 kts 69°
2026-04-29 09:06 21.68468 39.14475 58 ft 37 kts 68°
2026-04-29 09:06 21.68526 39.14635 58 ft 17 kts 70°
2026-04-29 09:06 21.68568 39.14753 58 ft 16 kts 68°
2026-04-29 09:06 21.68608 39.14864 58 ft 15 kts 69°
2026-04-29 09:07 21.68634 39.14943 58 ft 12 kts 72°
2026-04-29 09:07 21.68653 39.15008 58 ft 5 kts 72°
2026-04-29 09:07 21.68664 39.15044 58 ft 0 kts 71°
2026-04-29 09:08 21.68669 39.15060 58 ft 0 kts 71°
2026-04-29 09:08 21.68670 39.15064 58 ft 0 kts 71°
2026-04-29 09:08 21.68670 39.15065 58 ft 0 kts 71°
2026-04-29 09:09 21.68674 39.15075 58 ft 3 kts 71°
2026-04-29 09:09 21.68699 39.15152 58 ft 18 kts 70°
2026-04-29 09:09 21.68657 39.15278 58 ft 21 kts 158°
2026-04-29 09:09 21.68513 39.15328 58 ft 22 kts 160°
2026-04-29 09:10 21.68337 39.15395 58 ft 29 kts 160°
2026-04-29 09:10 21.68146 39.15471 58 ft 29 kts 159°
2026-04-29 09:10 21.67955 39.15550 58 ft 29 kts 158°
2026-04-29 09:10 21.67766 39.15632 58 ft 29 kts 158°
2026-04-29 09:11 21.67578 39.15710 58 ft 28 kts 163°
2026-04-29 09:11 21.67387 39.15776 58 ft 28 kts 161°
2026-04-29 09:11 21.67199 39.15847 58 ft 28 kts 159°
2026-04-29 09:11 21.67013 39.15924 58 ft 28 kts 159°
2026-04-29 09:12 21.66830 39.16001 58 ft 28 kts 159°
2026-04-29 09:12 21.66643 39.16076 58 ft 28 kts 159°
2026-04-29 09:12 21.66457 39.16141 58 ft 28 kts 161°
2026-04-29 09:12 21.66274 39.16214 58 ft 27 kts 157°
2026-04-29 09:13 21.66103 39.16289 58 ft 19 kts 146°
2026-04-29 09:13 21.66093 39.16373 58 ft 13 kts 69°
2026-04-29 09:13 21.66141 39.16465 58 ft 13 kts 29°
2026-04-29 09:13 21.66190 39.16465 58 ft 4 kts 341°
2026-04-29 09:14 21.66218 39.16454 58 ft 0 kts 339°
2026-04-29 09:14 21.66223 39.16452 58 ft 4 kts 339°
2026-04-29 09:15 21.66524 39.16333 58 ft 97 kts 340°
2026-04-29 09:15 21.67454 39.15963 156 ft 177 kts 340°
2026-04-29 09:15 21.68589 39.15481 1212 ft 183 kts 338°
2026-04-29 09:15 21.69776 39.14983 2278 ft 189 kts 340°
2026-04-29 09:16 21.70932 39.14524 3257 ft 164 kts 340°
2026-04-29 09:16 21.71970 39.14117 3890 ft 160 kts 339°
2026-04-29 09:16 21.73003 39.13713 4428 ft 156 kts 338°
2026-04-29 09:16 21.74043 39.13305 4918 ft 162 kts 338°
2026-04-29 09:17 21.75115 39.12886 5444 ft 165 kts 337°
2026-04-29 09:17 21.76188 39.12466 5954 ft 168 kts 336°
2026-04-29 09:17 21.77304 39.12029 6479 ft 171 kts 336°
2026-04-29 09:17 21.78419 39.11593 7027 ft 173 kts 336°
2026-04-29 09:18 21.79544 39.11154 7591 ft 174 kts 336°
2026-04-29 09:18 21.80698 39.10702 8089 ft 181 kts 336°
2026-04-29 09:18 21.81923 39.10220 8430 ft 197 kts 336°
2026-04-29 09:18 21.83275 39.09689 8765 ft 213 kts 336°
2026-04-29 09:19 21.84713 39.09126 9104 ft 229 kts 336°
2026-04-29 09:19 21.86276 39.08515 9430 ft 244 kts 336°
2026-04-29 09:19 21.87949 39.07858 9771 ft 267 kts 337°
2026-04-29 09:19 21.89763 39.07140 10099 ft 287 kts 335°
2026-04-29 09:20 21.91598 39.06294 10433 ft 286 kts 333°
2026-04-29 09:20 21.93411 39.05419 10761 ft 286 kts 333°
2026-04-29 09:20 21.95243 39.04536 11087 ft 287 kts 333°
2026-04-29 09:20 21.97086 39.03653 11412 ft 291 kts 333°
2026-04-29 09:21 21.98916 39.02778 11749 ft 290 kts 333°
2026-04-29 09:21 22.00802 39.01877 12047 ft 294 kts 333°
2026-04-29 09:21 22.02638 39.01001 12376 ft 290 kts 333°
2026-04-29 09:21 22.04456 39.00131 12667 ft 287 kts 333°
2026-04-29 09:22 22.06302 38.99245 12974 ft 303 kts 333°
2026-04-29 09:22 22.08290 38.98293 13311 ft 310 kts 333°
2026-04-29 09:22 22.10247 38.97359 13629 ft 311 kts 332°
2026-04-29 09:22 22.12232 38.96408 13948 ft 312 kts 332°
2026-04-29 09:23 22.14229 38.95453 14257 ft 312 kts 332°
2026-04-29 09:23 22.16221 38.94497 14579 ft 314 kts 332°
2026-04-29 09:23 22.18214 38.93545 14894 ft 314 kts 331°
2026-04-29 09:23 22.20216 38.92590 15215 ft 313 kts 331°
2026-04-29 09:24 22.22203 38.91641 15546 ft 312 kts 330°
2026-04-29 09:24 22.24210 38.90680 16004 ft 323 kts 330°
2026-04-29 09:24 22.26309 38.89671 16463 ft 340 kts 330°
2026-04-29 09:24 22.28537 38.88601 16921 ft 352 kts 330°
2026-04-29 09:25 22.30787 38.87525 17387 ft 355 kts 330°
2026-04-29 09:25 22.33033 38.86451 17844 ft 355 kts 330°
2026-04-29 09:25 22.35318 38.85356 18310 ft 359 kts 330°
2026-04-29 09:25 22.37579 38.84271 18762 ft 359 kts 330°
2026-04-29 09:26 22.39892 38.83161 19230 ft 363 kts 330°
2026-04-29 09:26 22.42203 38.82051 19704 ft 363 kts 331°
2026-04-29 09:26 22.44523 38.80936 20167 ft 365 kts 330°
2026-04-29 09:26 22.46844 38.79821 20630 ft 367 kts 331°
2026-04-29 09:27 22.49185 38.78695 21096 ft 368 kts 331°
2026-04-29 09:27 22.51535 38.77565 21569 ft 370 kts 331°
2026-04-29 09:27 22.53869 38.76443 22033 ft 370 kts 331°
2026-04-29 09:27 22.56242 38.75300 22511 ft 373 kts 331°
2026-04-29 09:28 22.58611 38.74162 22958 ft 371 kts 331°
2026-04-29 09:28 22.60965 38.73028 23390 ft 377 kts 331°
2026-04-29 09:28 22.63367 38.71870 23824 ft 381 kts 330°
2026-04-29 09:28 22.65773 38.70655 24255 ft 384 kts 330°
2026-04-29 09:29 22.68277 38.69527 24687 ft 390 kts 332°
2026-04-29 09:29 22.73359 38.67366 25538 ft 396 kts 332°
2026-04-29 09:29 22.75927 38.66254 25962 ft 400 kts 330°
2026-04-29 09:30 22.78530 38.65112 26386 ft 404 kts 330°
2026-04-29 09:30 22.81157 38.63952 26810 ft 407 kts 330°
2026-04-29 09:30 22.83775 38.62793 27226 ft 412 kts 329°
2026-04-29 09:30 22.86448 38.61608 27646 ft 414 kts 329°
2026-04-29 09:31 22.89128 38.60419 28064 ft 417 kts 329°
2026-04-29 09:31 22.91834 38.59217 28498 ft 421 kts 328°
2026-04-29 09:31 22.94543 38.58011 28982 ft 423 kts 329°
2026-04-29 09:31 22.97259 38.56803 29465 ft 427 kts 329°
2026-04-29 09:32 23.00026 38.55571 29956 ft 430 kts 329°
2026-04-29 09:32 23.02819 38.54329 30449 ft 432 kts 328°
2026-04-29 09:32 23.05616 38.53084 30941 ft 435 kts 328°
2026-04-29 09:32 23.08420 38.51835 31433 ft 438 kts 329°
2026-04-29 09:33 23.11231 38.50582 31923 ft 441 kts 328°
2026-04-29 09:33 23.14083 38.49309 32420 ft 443 kts 328°
2026-04-29 09:33 23.16956 38.48025 32956 ft 446 kts 328°
2026-04-29 09:33 23.19858 38.46728 33495 ft 448 kts 329°
2026-04-29 09:34 23.22715 38.45452 34027 ft 451 kts 329°
2026-04-29 09:34 23.25652 38.44138 34575 ft 453 kts 329°
2026-04-29 09:34 23.28581 38.42828 35055 ft 457 kts 329°
2026-04-29 09:34 23.31518 38.41514 35481 ft 461 kts 329°
2026-04-29 09:35 23.34521 38.40169 35819 ft 468 kts 330°
2026-04-29 09:35 23.37536 38.38817 35897 ft 477 kts 329°
2026-04-29 09:35 23.43725 38.36048 35909 ft 480 kts 330°
2026-04-29 09:36 23.49882 38.33287 35911 ft 475 kts 329°
2026-04-29 09:36 23.55991 38.30515 35906 ft 474 kts 329°
2026-04-29 09:37 23.62092 38.27758 35910 ft 476 kts 329°
2026-04-29 09:37 23.68188 38.25012 35907 ft 475 kts 329°
2026-04-29 09:38 23.74345 38.22237 35904 ft 475 kts 329°
2026-04-29 09:38 23.80437 38.19491 35902 ft 474 kts 329°
2026-04-29 09:39 23.86530 38.16742 35905 ft 473 kts 328°
2026-04-29 09:39 23.92627 38.13986 35893 ft 474 kts 328°
2026-04-29 09:40 23.98681 38.11250 35887 ft 470 kts 328°
2026-04-29 09:40 24.04746 38.08503 35885 ft 470 kts 328°
2026-04-29 09:41 24.10817 38.05748 35876 ft 472 kts 328°
2026-04-29 09:41 24.13805 38.04392 35869 ft 461 kts 327°
2026-04-29 09:41 24.16612 38.02731 35878 ft 453 kts 319°
2026-04-29 09:42 24.19332 38.00918 35874 ft 465 kts 324°
2026-04-29 09:42 24.22348 37.99570 35886 ft 478 kts 332°
2026-04-29 09:42 24.28680 37.97266 35884 ft 477 kts 331°
2026-04-29 09:43 24.34867 37.94749 35896 ft 471 kts 329°
2026-04-29 09:43 24.40957 37.92049 35899 ft 471 kts 328°
2026-04-29 09:44 24.47005 37.89297 35908 ft 473 kts 328°
2026-04-29 09:44 24.53048 37.86543 35919 ft 469 kts 328°
2026-04-29 09:45 24.59086 37.83785 35949 ft 467 kts 328°
2026-04-29 09:45 24.65110 37.81028 35974 ft 469 kts 328°
2026-04-29 09:46 24.71116 37.78278 36020 ft 470 kts 328°
2026-04-29 09:46 24.77139 37.75521 36042 ft 468 kts 328°
2026-04-29 09:47 24.83189 37.72744 36039 ft 470 kts 327°
2026-04-29 09:47 24.89224 37.69975 36019 ft 470 kts 328°
2026-04-29 09:48 24.95217 37.67224 36000 ft 465 kts 327°
2026-04-29 09:48 25.01265 37.64438 35992 ft 471 kts 327°
2026-04-29 09:49 25.07272 37.61675 35981 ft 464 kts 327°
2026-04-29 09:49 25.13215 37.58935 35974 ft 466 kts 327°
2026-04-29 09:50 25.19210 37.56163 35969 ft 468 kts 327°
2026-04-29 09:50 25.25266 37.53365 35958 ft 467 kts 327°
2026-04-29 09:51 25.31250 37.50602 35949 ft 465 kts 327°
2026-04-29 09:51 25.37233 37.47829 35945 ft 466 kts 327°
2026-04-29 09:52 25.43179 37.45074 35941 ft 466 kts 327°
2026-04-29 09:52 25.49194 37.42283 35940 ft 466 kts 327°
2026-04-29 09:53 25.55167 37.39510 35935 ft 466 kts 327°
2026-04-29 09:53 25.61126 37.36740 35934 ft 465 kts 327°
2026-04-29 09:54 25.66940 37.33747 35931 ft 446 kts 316°
2026-04-29 09:54 25.69277 37.31624 35932 ft 432 kts 306°
2026-04-29 09:54 25.71264 37.29147 35926 ft 427 kts 300°
2026-04-29 09:55 25.74723 37.23853 35918 ft 422 kts 296°
2026-04-29 09:55 25.77938 37.18451 35913 ft 419 kts 295°
2026-04-29 09:56 25.81096 37.13019 35913 ft 421 kts 295°
2026-04-29 09:56 25.84248 37.07577 35907 ft 415 kts 295°
2026-04-29 09:57 25.87382 37.02146 35903 ft 420 kts 295°
2026-04-29 09:57 25.90502 36.96738 35897 ft 416 kts 295°
2026-04-29 09:58 25.93622 36.91324 35899 ft 415 kts 295°
2026-04-29 09:58 25.96737 36.85907 35896 ft 417 kts 295°
2026-04-29 09:59 25.99845 36.80502 35899 ft 415 kts 295°
2026-04-29 09:59 26.02959 36.75077 35903 ft 415 kts 295°
2026-04-29 10:00 26.06037 36.69710 35908 ft 414 kts 295°
2026-04-29 10:00 26.09122 36.64325 35910 ft 413 kts 295°
2026-04-29 10:01 26.12201 36.58940 35909 ft 413 kts 295°
2026-04-29 10:01 26.15305 36.53505 35910 ft 416 kts 295°
2026-04-29 10:02 26.18519 36.48166 35906 ft 420 kts 302°
2026-04-29 10:02 26.22558 36.43393 35910 ft 426 kts 306°
2026-04-29 10:03 26.26723 36.38705 35902 ft 426 kts 306°
2026-04-29 10:03 26.30868 36.33981 35910 ft 426 kts 305°
2026-04-29 10:04 26.34946 36.29251 35906 ft 425 kts 305°
2026-04-29 10:04 26.39052 36.24488 35901 ft 426 kts 305°
2026-04-29 10:05 26.43123 36.19777 35895 ft 422 kts 305°
2026-04-29 10:05 26.47218 36.15035 35896 ft 426 kts 306°
2026-04-29 10:06 26.51338 36.10268 35894 ft 425 kts 305°
2026-04-29 10:06 26.55430 36.05523 35894 ft 424 kts 306°
2026-04-29 10:07 26.59525 36.00773 35892 ft 425 kts 306°
2026-04-29 10:07 26.63612 35.96026 35894 ft 424 kts 306°
2026-04-29 10:08 26.67689 35.91287 35893 ft 424 kts 306°
2026-04-29 10:08 26.71767 35.86539 35896 ft 424 kts 306°
2026-04-29 10:09 26.75843 35.81790 35896 ft 423 kts 306°
2026-04-29 10:09 26.79902 35.77055 35897 ft 424 kts 306°
2026-04-29 10:10 26.84013 35.72251 35898 ft 424 kts 306°
2026-04-29 10:10 26.88065 35.67519 35896 ft 425 kts 306°
2026-04-29 10:11 26.92145 35.62743 35891 ft 423 kts 306°
2026-04-29 10:11 26.96234 35.57953 35902 ft 426 kts 306°
2026-04-29 10:12 27.00334 35.53143 35902 ft 424 kts 306°
2026-04-29 10:12 27.04402 35.48368 35900 ft 426 kts 306°
2026-04-29 10:13 27.08478 35.43574 35897 ft 426 kts 306°
2026-04-29 10:13 27.12537 35.38799 35900 ft 424 kts 306°
2026-04-29 10:14 27.16613 35.33993 35903 ft 424 kts 305°
2026-04-29 10:14 27.20651 35.29177 35898 ft 423 kts 306°
2026-04-29 10:15 27.24677 35.24394 35902 ft 423 kts 306°
2026-04-29 10:15 27.28736 35.19583 35902 ft 423 kts 306°
2026-04-29 10:16 27.32083 35.15620 35904 ft 423 kts 306°
2026-04-29 10:16 27.36817 35.10009 35909 ft 422 kts 306°
2026-04-29 10:17 27.40850 35.05225 35911 ft 424 kts 306°
2026-04-29 10:17 27.44910 35.00404 35910 ft 423 kts 306°
2026-04-29 10:18 27.48939 34.95615 35910 ft 422 kts 306°
2026-04-29 10:18 27.53029 34.90886 35906 ft 424 kts 309°
2026-04-29 10:19 27.57377 34.86328 35901 ft 428 kts 310°
2026-04-29 10:19 27.61725 34.81792 35907 ft 426 kts 310°
2026-04-29 10:20 27.66051 34.77241 35903 ft 428 kts 309°
2026-04-29 10:20 27.70384 34.72664 35900 ft 426 kts 309°
2026-04-29 10:21 27.74703 34.68094 35902 ft 427 kts 309°
2026-04-29 10:21 27.79047 34.63487 35902 ft 427 kts 310°
2026-04-29 10:22 27.83367 34.58906 35903 ft 427 kts 309°
2026-04-29 10:22 27.87692 34.54309 35912 ft 428 kts 310°
2026-04-29 10:23 27.92034 34.49692 35921 ft 426 kts 309°
2026-04-29 10:23 27.96358 34.45086 35925 ft 429 kts 310°
2026-04-29 10:24 28.00580 34.40429 35934 ft 423 kts 305°
2026-04-29 10:24 28.04345 34.35294 35938 ft 421 kts 303°
2026-04-29 10:25 28.07988 34.30138 35960 ft 420 kts 302°
2026-04-29 10:25 28.11661 34.24972 35962 ft 421 kts 303°
2026-04-29 10:26 28.15344 34.19839 35991 ft 419 kts 303°
2026-04-29 10:26 28.19042 34.14702 36033 ft 421 kts 304°
2026-04-29 10:27 28.24571 34.07020 36069 ft 421 kts 303°
2026-04-29 10:28 28.28261 34.01888 36107 ft 420 kts 303°
2026-04-29 10:28 28.31957 33.96742 36098 ft 421 kts 303°
2026-04-29 10:29 28.35674 33.91558 36095 ft 422 kts 304°
2026-04-29 10:29 28.39343 33.86441 36085 ft 420 kts 303°
2026-04-29 10:30 28.43038 33.81273 36068 ft 422 kts 304°
2026-04-29 10:30 28.46727 33.76114 36051 ft 422 kts 304°
2026-04-29 10:31 28.50421 33.70938 36050 ft 420 kts 304°
2026-04-29 10:31 28.54091 33.65790 36043 ft 422 kts 304°
2026-04-29 10:32 28.57798 33.60599 36037 ft 422 kts 304°
2026-04-29 10:32 28.61484 33.55433 36025 ft 422 kts 304°
2026-04-29 10:33 28.65168 33.50258 36031 ft 421 kts 304°
2026-04-29 10:33 28.68805 33.45141 36059 ft 403 kts 304°
2026-04-29 10:33 28.70527 33.42721 36018 ft 387 kts 304°
2026-04-29 10:34 28.72183 33.40390 35909 ft 373 kts 304°
2026-04-29 10:34 28.73797 33.38108 35751 ft 365 kts 304°
2026-04-29 10:34 28.75369 33.35878 35577 ft 364 kts 304°
2026-04-29 10:34 28.76958 33.33615 35432 ft 368 kts 303°
2026-04-29 10:35 28.78562 33.31311 35302 ft 371 kts 303°
2026-04-29 10:35 28.80167 33.29009 35197 ft 371 kts 304°
2026-04-29 10:35 28.81775 33.26718 35074 ft 368 kts 303°
2026-04-29 10:35 28.83353 33.24474 34952 ft 366 kts 304°
2026-04-29 10:36 28.84939 33.22216 34597 ft 366 kts 304°
2026-04-29 10:36 28.86522 33.19967 34074 ft 360 kts 304°
2026-04-29 10:36 28.88082 33.17752 33544 ft 353 kts 305°
2026-04-29 10:36 28.89602 33.15593 32997 ft 346 kts 305°
2026-04-29 10:37 28.91085 33.13487 32438 ft 339 kts 306°
2026-04-29 10:37 28.92532 33.11429 31883 ft 332 kts 306°
2026-04-29 10:37 28.93957 33.09402 31329 ft 326 kts 306°
2026-04-29 10:37 28.95357 33.07407 30773 ft 320 kts 307°
2026-04-29 10:38 28.96730 33.05452 30215 ft 314 kts 307°
2026-04-29 10:38 28.98093 33.03510 29650 ft 309 kts 307°
2026-04-29 10:38 28.99415 33.01626 29081 ft 303 kts 308°
2026-04-29 10:38 29.00707 32.99785 28516 ft 298 kts 308°
2026-04-29 10:39 29.01998 32.97946 27940 ft 294 kts 307°
2026-04-29 10:39 29.03254 32.96152 27372 ft 289 kts 308°
2026-04-29 10:39 29.04505 32.94369 26800 ft 286 kts 307°
2026-04-29 10:39 29.05733 32.92614 26237 ft 285 kts 307°
2026-04-29 10:40 29.06973 32.90842 25664 ft 284 kts 307°
2026-04-29 10:40 29.08199 32.89090 25098 ft 284 kts 307°
2026-04-29 10:40 29.09427 32.87334 24526 ft 283 kts 307°
2026-04-29 10:40 29.10642 32.85594 23951 ft 282 kts 307°
2026-04-29 10:41 29.11858 32.83854 23369 ft 279 kts 307°
2026-04-29 10:41 29.13055 32.82140 22799 ft 276 kts 307°
2026-04-29 10:41 29.14245 32.80432 22230 ft 274 kts 307°
2026-04-29 10:41 29.15426 32.78739 21658 ft 273 kts 307°
2026-04-29 10:42 29.16607 32.77046 21072 ft 273 kts 307°
2026-04-29 10:42 29.17795 32.75340 20488 ft 274 kts 308°
2026-04-29 10:42 29.18977 32.73645 19924 ft 274 kts 308°
2026-04-29 10:42 29.20153 32.71957 19357 ft 273 kts 308°
2026-04-29 10:43 29.21338 32.70256 18794 ft 272 kts 308°
2026-04-29 10:43 29.22502 32.68583 18222 ft 272 kts 308°
2026-04-29 10:43 29.23674 32.66897 17654 ft 272 kts 308°
2026-04-29 10:43 29.24856 32.65199 17081 ft 271 kts 308°
2026-04-29 10:44 29.26028 32.63514 16513 ft 271 kts 308°
2026-04-29 10:44 29.27182 32.61853 15994 ft 267 kts 308°
2026-04-29 10:44 29.28328 32.60202 15617 ft 262 kts 308°
2026-04-29 10:44 29.29456 32.58565 15264 ft 262 kts 308°
2026-04-29 10:45 29.30582 32.56926 15065 ft 260 kts 308°
2026-04-29 10:45 29.31704 32.55294 15006 ft 263 kts 308°
2026-04-29 10:45 29.32832 32.53652 14989 ft 263 kts 308°
2026-04-29 10:45 29.33976 32.51986 14990 ft 265 kts 308°
2026-04-29 10:46 29.35102 32.50346 15005 ft 263 kts 308°
2026-04-29 10:46 29.36243 32.48683 15005 ft 266 kts 308°
2026-04-29 10:46 29.37384 32.47022 14996 ft 264 kts 308°
2026-04-29 10:46 29.38516 32.45371 14992 ft 263 kts 308°
2026-04-29 10:47 29.39651 32.43716 15002 ft 262 kts 308°
2026-04-29 10:47 29.40769 32.42085 15011 ft 265 kts 308°
2026-04-29 10:47 29.41876 32.40470 15014 ft 263 kts 308°
2026-04-29 10:47 29.43007 32.38818 15023 ft 264 kts 308°
2026-04-29 10:48 29.44150 32.37148 15024 ft 265 kts 308°
2026-04-29 10:48 29.45279 32.35498 15032 ft 264 kts 308°
2026-04-29 10:48 29.46413 32.33832 15033 ft 265 kts 308°
2026-04-29 10:48 29.47545 32.32158 15033 ft 264 kts 308°
2026-04-29 10:49 29.48672 32.30498 15037 ft 263 kts 308°
2026-04-29 10:49 29.49801 32.28839 15043 ft 265 kts 308°
2026-04-29 10:49 29.50931 32.27183 15047 ft 265 kts 308°
2026-04-29 10:49 29.52078 32.25503 15043 ft 264 kts 308°
2026-04-29 10:50 29.53202 32.23854 15052 ft 263 kts 308°
2026-04-29 10:50 29.54234 32.22342 15043 ft 260 kts 308°
2026-04-29 10:50 29.55355 32.20698 15042 ft 263 kts 308°
2026-04-29 10:50 29.56502 32.19016 14868 ft 267 kts 308°
2026-04-29 10:51 29.57640 32.17344 14565 ft 268 kts 308°
2026-04-29 10:51 29.58786 32.15661 14254 ft 265 kts 308°
2026-04-29 10:51 29.59918 32.13999 13943 ft 261 kts 308°
2026-04-29 10:51 29.61035 32.12356 13638 ft 262 kts 308°
2026-04-29 10:52 29.62158 32.10706 13332 ft 264 kts 308°
2026-04-29 10:52 29.63279 32.09057 13028 ft 262 kts 308°
2026-04-29 10:52 29.64400 32.07408 12724 ft 259 kts 308°
2026-04-29 10:52 29.65502 32.05784 12421 ft 257 kts 308°
2026-04-29 10:53 29.66607 32.04157 12117 ft 257 kts 308°
2026-04-29 10:53 29.67706 32.02539 11813 ft 258 kts 308°
2026-04-29 10:53 29.68806 32.00917 11510 ft 258 kts 308°
2026-04-29 10:53 29.69900 31.99304 11206 ft 257 kts 308°
2026-04-29 10:54 29.71006 31.97672 10902 ft 262 kts 308°
2026-04-29 10:54 29.72126 31.96020 10606 ft 263 kts 308°
2026-04-29 10:54 29.73248 31.94364 10303 ft 260 kts 308°
2026-04-29 10:54 29.74358 31.92724 9995 ft 257 kts 308°
2026-04-29 10:55 29.75347 31.91263 9718 ft 255 kts 308°
2026-04-29 10:55 29.76428 31.89665 9419 ft 253 kts 308°
2026-04-29 10:55 29.77514 31.88059 9116 ft 252 kts 308°
2026-04-29 10:55 29.78570 31.86485 8828 ft 252 kts 307°
2026-04-29 10:56 29.79623 31.84851 8529 ft 252 kts 307°
2026-04-29 10:56 29.80457 31.83124 8223 ft 251 kts 284°
2026-04-29 10:56 29.80671 31.81108 7930 ft 253 kts 275°
2026-04-29 10:56 29.80769 31.79109 7635 ft 254 kts 275°
2026-04-29 10:57 29.80859 31.77083 7333 ft 252 kts 275°
2026-04-29 10:57 29.80950 31.75075 7036 ft 250 kts 275°
2026-04-29 10:57 29.81037 31.73088 6732 ft 249 kts 275°
2026-04-29 10:57 29.81122 31.71095 6426 ft 248 kts 275°
2026-04-29 10:58 29.81204 31.69110 6122 ft 248 kts 275°
2026-04-29 10:58 29.81286 31.67145 5823 ft 248 kts 275°
2026-04-29 10:58 29.81368 31.65174 5531 ft 247 kts 275°
2026-04-29 10:58 29.81451 31.63203 5230 ft 245 kts 275°
2026-04-29 10:59 29.81532 31.61241 4931 ft 244 kts 275°
2026-04-29 10:59 29.81634 31.59309 4620 ft 242 kts 282°
2026-04-29 10:59 29.82161 31.57486 4294 ft 241 kts 294°
2026-04-29 10:59 29.82817 31.55714 4007 ft 240 kts 295°
2026-04-29 11:00 29.83479 31.53950 3724 ft 239 kts 295°
2026-04-29 11:00 29.84140 31.52188 3432 ft 238 kts 295°
2026-04-29 11:00 29.84787 31.50459 3141 ft 236 kts 295°
2026-04-29 11:00 29.85431 31.48734 2851 ft 234 kts 295°
2026-04-29 11:01 29.86068 31.47024 2600 ft 229 kts 295°
2026-04-29 11:01 29.86687 31.45356 2509 ft 219 kts 295°
2026-04-29 11:01 29.87274 31.43775 2493 ft 212 kts 295°
2026-04-29 11:01 29.87869 31.42173 2503 ft 219 kts 295°
2026-04-29 11:02 29.88465 31.40568 2492 ft 221 kts 295°
2026-04-29 11:02 29.89078 31.38928 2486 ft 224 kts 295°
2026-04-29 11:02 29.89695 31.37281 2483 ft 224 kts 295°
2026-04-29 11:02 29.90307 31.35640 2479 ft 224 kts 295°
2026-04-29 11:03 29.90921 31.33992 2477 ft 224 kts 294°
2026-04-29 11:03 29.91545 31.32328 2473 ft 225 kts 294°
2026-04-29 11:03 29.92162 31.30681 2472 ft 224 kts 294°
2026-04-29 11:03 29.92960 31.29151 2466 ft 222 kts 318°
2026-04-29 11:04 29.94343 31.28452 2469 ft 221 kts 355°
2026-04-29 11:04 29.95879 31.28543 2476 ft 223 kts
2026-04-29 11:04 29.97430 31.28720 2473 ft 223 kts
2026-04-29 11:04 29.98998 31.28902 2474 ft 222 kts
2026-04-29 11:05 30.00522 31.29133 2466 ft 221 kts 15°
2026-04-29 11:05 30.01756 31.30157 2472 ft 222 kts 53°
2026-04-29 11:05 30.02312 31.31837 2483 ft 229 kts 68°
2026-04-29 11:05 30.03201 31.33320 2342 ft 219 kts 45°
2026-04-29 11:06 30.04163 31.34572 2096 ft 199 kts 46°
2026-04-29 11:06 30.05025 31.35711 1823 ft 186 kts 47°
2026-04-29 11:06 30.05841 31.36794 1566 ft 169 kts 46°
2026-04-29 11:06 30.06585 31.37780 1282 ft 155 kts 46°
2026-04-29 11:07 30.07250 31.38661 1105 ft 140 kts 46°
2026-04-29 11:07 30.07888 31.39495 919 ft 138 kts 45°
2026-04-29 11:07 30.08535 31.40339 773 ft 142 kts 46°
2026-04-29 11:07 30.09177 31.41188 598 ft 137 kts 46°
2026-04-29 11:08 30.09788 31.42001 418 ft 132 kts 46°
2026-04-29 11:08 30.10361 31.42750 392 ft 112 kts 50°
2026-04-29 11:08 30.10770 31.43299 392 ft 62 kts 48°
2026-04-29 11:08 30.11006 31.43523 392 ft 26 kts 25°
2026-04-29 11:09 30.11101 31.43571 392 ft 13 kts 22°
2026-04-29 11:09 30.11174 31.43602 392 ft 11 kts
2026-04-29 11:09 30.11248 31.43534 392 ft 13 kts 269°
2026-04-29 11:09 30.11257 31.43424 392 ft 13 kts 297°
2026-04-29 11:10 30.11319 31.43346 392 ft 13 kts 320°
2026-04-29 11:10 30.11412 31.43260 392 ft 25 kts 321°
2026-04-29 11:10 30.11561 31.43117 391 ft 26 kts 317°
2026-04-29 11:10 30.11698 31.42973 391 ft 26 kts 317°
2026-04-29 11:11 30.11835 31.42838 391 ft 25 kts 319°
2026-04-29 11:11 30.11932 31.42740 391 ft 6 kts 317°
2026-04-29 11:11 30.11949 31.42722 391 ft 0 kts 320°
2026-04-29 11:12 30.11950 31.42722 391 ft 0 kts 320°
2026-04-29 11:12 30.11971 31.42701 391 ft 7 kts 319°